Weather History for Quillayute, WA

Change the Weather History Date:

Sunday, February 24, 2013

  Actual Average Record
Temperature  
Mean Temperature 44 °F 42 °F  
Max Temperature 47 °F 50 °F 62 °F (1970)
Min Temperature 40 °F 35 °F 24 °F (1993)
Degree Days  
Heating Degree Days 21 23  
Month to date heating degree days 501 552  
Since 1 July heating degree days 3609 3757  
Cooling Degree Days 0 0  
Month to date cooling degree days 0 0  
Year to date cooling degree days 0 0  
Moisture  
Dew Point 40 °F    
Average Humidity 84    
Maximum Humidity 92    
Minimum Humidity 76    
Precipitation  
Precipitation 2.42 in 0.36 in 3.61 in (1979)
Month to date precipitation 9.53 8.90  
Year to date precipitation 19.87 23.51  
Sea Level Pressure  
Sea Level Pressure 30.11 in    
Wind  
Wind Speed 9 mph (SSE)    
Max Wind Speed 20 mph    
Max Gust Speed 40 mph    
Visibility 2 miles    
Events Fog , Rain    
T = Trace of Precipitation, MM = Missing Value Source: NWS Daily Summary

Daily Weather History Graph

Daily Weather History Graph

Search for Another Location

Airport:

Trip Planner

Search our weather history database for the weather conditions in past years. The results will help you decide how hot, cold, wet, or windy it might be!

Date:

Astronomy

Feb. 24, 2013 Rise Set
Actual Time 7:07 AM PST 5:55 PM PST
Civil Twilight 6:36 AM PST 6:26 PM PST
Nautical Twilight 6:00 AM PST 7:02 PM PST
Astronomical Twilight 5:24 AM PST 7:38 PM PST
Moon 5:13 PM PST (2/24) 6:09 AM PST (2/24)
Length of Visible Light 11h 50m
Length of Day
10h 47m
Waxing Gibbous, 99% of the Moon is Illuminated
Feb 24
Waxing Gibbous
Feb 25
Full
Mar 4
Last Quarter
Mar 11
New
Mar 19
First Quarter

Hourly Weather History & Observations

Time (PST) Temp. Windchill Dew Point Humidity Pressure Visibility Wind Dir Wind Speed Gust Speed Precip Events Conditions
12:53 AM 41.0 °F - 36.0 °F 82% 30.36 in 5.0 mi Calm Calm - N/A   Haze
1:53 AM 41.0 °F - 36.0 °F 82% 30.36 in 5.0 mi Calm Calm - 0.00 in Rain Light Rain
2:53 AM 41.0 °F 39.0 °F 36.0 °F 82% 30.34 in 4.0 mi SSE 3.5 mph - 0.00 in Rain Light Rain
3:53 AM 42.1 °F 39.2 °F 36.0 °F 79% 30.32 in 5.0 mi SE 4.6 mph - 0.00 in   Haze
4:30 AM 42.8 °F 39.3 °F 35.6 °F 76% 30.31 in 2.5 mi SSE 5.8 mph - 0.00 in Rain Light Rain
4:39 AM 42.8 °F 39.3 °F 35.6 °F 76% 30.31 in 3.0 mi SSE 5.8 mph - 0.00 in   Haze
4:53 AM 42.1 °F 37.7 °F 36.0 °F 79% 30.31 in 2.5 mi SE 6.9 mph - 0.00 in   Haze
5:08 AM 42.8 °F 39.3 °F 35.6 °F 76% 30.30 in 4.0 mi SE 5.8 mph - 0.00 in   Haze
5:53 AM 42.1 °F 38.4 °F 36.0 °F 79% 30.29 in 6.0 mi SE 5.8 mph - 0.00 in   Haze
6:03 AM 42.8 °F 38.6 °F 35.6 °F 76% 30.29 in 6.0 mi SE 6.9 mph - N/A   Haze
6:12 AM 42.8 °F 39.3 °F 37.4 °F 81% 30.29 in 3.0 mi Variable 5.8 mph - 0.00 in Rain Light Rain
6:21 AM 42.8 °F 39.3 °F 37.4 °F 81% 30.29 in 2.5 mi SSE 5.8 mph - 0.00 in Rain Light Rain
6:36 AM 42.8 °F 39.3 °F 37.4 °F 81% 30.29 in 1.8 mi Variable 5.8 mph - 0.01 in Rain Light Rain
6:41 AM 42.8 °F 38.0 °F 37.4 °F 81% 30.28 in 2.0 mi SSE 8.1 mph - 0.01 in Rain Light Rain
6:53 AM 42.1 °F 36.6 °F 37.0 °F 82% 30.28 in 2.5 mi SE 9.2 mph - 0.01 in Rain Light Rain
6:57 AM 42.8 °F 38.6 °F 37.4 °F 81% 30.28 in 3.0 mi SE 6.9 mph - 0.01 in Rain Light Rain
7:02 AM 42.8 °F 36.6 °F 37.4 °F 81% 30.28 in 2.5 mi SE 11.5 mph 18.4 mph 0.01 in Rain Light Rain
7:14 AM 42.8 °F 38.0 °F 37.4 °F 81% 30.27 in 4.0 mi SE 8.1 mph - 0.01 in Rain Light Rain
7:30 AM 42.8 °F 37.5 °F 37.4 °F 81% 30.27 in 2.0 mi SSE 9.2 mph - 0.02 in Rain Light Rain
7:42 AM 42.8 °F 38.6 °F 37.4 °F 81% 30.27 in 1.8 mi SSE 6.9 mph - 0.03 in Rain Light Rain
7:48 AM 42.8 °F 39.3 °F 37.4 °F 81% 30.27 in 1.2 mi Variable 5.8 mph - 0.03 in Rain Light Rain
7:53 AM 42.1 °F 37.7 °F 37.9 °F 85% 30.27 in 1.2 mi Variable 6.9 mph - 0.04 in Rain Light Rain
8:34 AM 42.8 °F 38.6 °F 39.2 °F 87% 30.26 in 0.5 mi SSE 6.9 mph - 0.02 in Fog , Rain Light Rain
8:48 AM 42.8 °F 39.3 °F 39.2 °F 87% 30.26 in 1.0 mi Variable 5.8 mph - 0.02 in Rain Light Rain
8:53 AM 43.0 °F 38.2 °F 39.0 °F 86% 30.26 in 0.8 mi SE 8.1 mph - 0.02 in Rain Light Rain
9:13 AM 44.6 °F 40.2 °F 39.2 °F 81% 30.25 in 0.5 mi SSE 8.1 mph - 0.01 in Fog , Rain Light Rain
9:25 AM 44.6 °F 40.2 °F 39.2 °F 81% 30.25 in 1.0 mi SE 8.1 mph - 0.01 in Rain Light Rain
9:33 AM 44.6 °F 40.7 °F 39.2 °F 81% 30.25 in 0.5 mi SSE 6.9 mph - 0.02 in Fog , Rain Light Rain
9:53 AM 44.1 °F 39.0 °F 39.9 °F 85% 30.25 in 0.8 mi SSE 9.2 mph - 0.04 in Rain Light Rain
10:40 AM 44.6 °F 39.7 °F 41.0 °F 87% 30.23 in 0.2 mi SSE 9.2 mph - 0.05 in Fog , Rain Light Rain
10:50 AM 44.6 °F 39.2 °F 41.0 °F 87% 30.22 in 0.5 mi SSE 10.4 mph 16.1 mph 0.06 in Fog , Rain Light Rain
10:53 AM 45.0 °F 40.1 °F 41.0 °F 86% 30.23 in 0.5 mi SSE 9.2 mph 16.1 mph 0.07 in Fog , Rain Light Rain
11:53 AM 46.0 °F 40.6 °F 42.1 °F 86% 30.21 in 0.5 mi SSE 11.5 mph 19.6 mph 0.09 in Fog , Rain Light Rain
12:28 PM 46.4 °F 43.5 °F 42.8 °F 87% 30.20 in 0.2 mi Variable 5.8 mph - 0.06 in Fog , Rain Light Rain
12:53 PM 46.9 °F - 43.0 °F 86% 30.19 in 0.2 mi South 10.4 mph 19.6 mph 0.10 in Fog , Rain Light Rain
1:00 PM 46.4 °F 42.4 °F 42.8 °F 87% 30.18 in 0.2 mi South 8.1 mph 23.0 mph 0.01 in Fog , Rain Light Rain
1:09 PM 46.4 °F 41.5 °F 42.8 °F 87% 30.17 in 0.5 mi South 10.4 mph 21.9 mph 0.02 in Fog , Rain Light Rain
1:25 PM 46.4 °F 41.1 °F 42.8 °F 87% 30.16 in 0.2 mi South 11.5 mph 23.0 mph 0.04 in Fog , Rain Light Rain
1:42 PM 46.4 °F 42.4 °F 44.6 °F 93% 30.15 in 0.5 mi South 8.1 mph 23.0 mph 0.07 in Fog , Rain Light Rain
1:53 PM 46.9 °F - 43.0 °F 86% 30.15 in 0.5 mi South 9.2 mph 23.0 mph 0.09 in Fog , Rain Light Rain
2:25 PM 46.4 °F 40.4 °F 42.8 °F 87% 30.13 in 0.2 mi South 13.8 mph 27.6 mph 0.05 in Fog , Rain Light Rain
2:53 PM 46.9 °F - 43.0 °F 86% 30.12 in 0.5 mi SSE 11.5 mph 20.7 mph 0.13 in Fog , Rain Light Rain
3:53 PM 46.9 °F - 43.0 °F 86% 30.09 in 0.5 mi South 9.2 mph 26.5 mph 0.14 in Fog , Rain Light Rain
4:53 PM 46.0 °F 41.4 °F 43.0 °F 89% 30.06 in 0.5 mi South 9.2 mph 23.0 mph 0.16 in Fog , Rain Rain
5:35 PM 46.4 °F 41.1 °F 42.8 °F 87% 30.03 in 0.2 mi South 11.5 mph 28.8 mph 0.13 in Fog , Rain Light Rain
5:53 PM 46.0 °F 40.2 °F 43.0 °F 89% 30.01 in 0.5 mi South 12.7 mph 23.0 mph 0.18 in Fog , Rain Rain
6:07 PM 46.4 °F 40.7 °F 42.8 °F 87% 30.00 in 1.2 mi South 12.7 mph 25.3 mph 0.04 in Rain Light Rain
6:33 PM 46.4 °F 40.4 °F 42.8 °F 87% 29.99 in 0.8 mi South 13.8 mph 33.4 mph 0.11 in Rain Light Rain
6:53 PM 46.0 °F 38.8 °F 43.0 °F 89% 29.99 in 0.8 mi South 18.4 mph 28.8 mph 0.16 in Rain Light Rain
7:53 PM 46.0 °F 40.6 °F 43.0 °F 89% 29.95 in 0.8 mi South 11.5 mph 26.5 mph 0.21 in Rain Rain
8:16 PM 46.4 °F 40.1 °F 42.8 °F 87% 29.93 in 1.0 mi South 15.0 mph 26.5 mph 0.10 in Rain Rain
8:27 PM 46.4 °F 40.4 °F 42.8 °F 87% 29.92 in 0.8 mi South 13.8 mph 23.0 mph 0.14 in Rain Rain
8:41 PM 44.6 °F 38.4 °F 42.8 °F 93% 29.91 in 0.8 mi SSE 12.7 mph 21.9 mph 0.19 in Rain Rain
8:53 PM 45.0 °F 39.3 °F 42.1 °F 90% 29.91 in 1.0 mi SSE 11.5 mph 26.5 mph 0.24 in Rain Rain
9:20 PM 44.6 °F 39.7 °F 41.0 °F 87% 29.88 in 1.0 mi SSE 9.2 mph 23.0 mph 0.07 in Rain Light Rain
9:37 PM 44.6 °F 38.4 °F 41.0 °F 87% 29.87 in 0.8 mi SSE 12.7 mph 26.5 mph 0.12 in Rain Rain
9:51 PM 44.6 °F 38.8 °F 41.0 °F 87% 29.87 in 1.2 mi SSE 11.5 mph 20.7 mph 0.17 in Rain Light Rain
9:53 PM 44.1 °F 37.7 °F 41.0 °F 89% 29.87 in 1.2 mi SSE 12.7 mph 24.2 mph 0.17 in Rain Light Rain
10:10 PM 44.6 °F 38.4 °F 41.0 °F 87% 29.87 in 0.8 mi South 12.7 mph 19.6 mph 0.08 in Rain Heavy Rain
10:23 PM 44.6 °F 38.8 °F 41.0 °F 87% 29.86 in 1.0 mi SSE 11.5 mph 26.5 mph 0.19 in Rain Heavy Rain
10:37 PM 44.6 °F 38.1 °F 41.0 °F 87% 29.87 in 1.2 mi South 13.8 mph 21.9 mph 0.28 in Rain Rain
10:53 PM 45.0 °F 39.3 °F 42.1 °F 90% 29.85 in 1.2 mi SSE 11.5 mph 24.2 mph 0.38 in Rain Rain
10:57 PM 46.4 °F 41.1 °F 42.8 °F 87% 29.84 in 2.0 mi South 11.5 mph 24.2 mph 0.01 in Rain Light Rain
11:02 PM 46.4 °F 40.4 °F 42.8 °F 87% 29.85 in 3.0 mi South 13.8 mph 24.2 mph 0.02 in Rain Light Rain
11:06 PM 46.4 °F 39.8 °F 42.8 °F 87% 29.86 in 2.5 mi South 16.1 mph 21.9 mph 0.02 in Rain Rain
11:14 PM 46.4 °F 41.5 °F 42.8 °F 87% 29.85 in 1.2 mi SSE 10.4 mph 21.9 mph 0.07 in Rain Rain
11:25 PM 46.4 °F 41.5 °F 42.8 °F 87% 29.83 in 2.0 mi South 10.4 mph 23.0 mph 0.12 in Rain Light Rain
11:35 PM 46.4 °F 41.1 °F 42.8 °F 87% 29.83 in 3.0 mi South 11.5 mph 19.6 mph 0.12 in Rain Light Rain
11:41 PM 46.4 °F 39.2 °F 44.6 °F 93% 29.85 in 1.8 mi WSW 18.4 mph 24.2 mph 0.13 in Rain Light Rain
11:49 PM 44.6 °F 36.9 °F 39.2 °F 81% 29.86 in 1.0 mi SW 18.4 mph 25.3 mph 0.18 in Rain Light Rain
11:53 PM 45.0 °F 38.5 °F 39.9 °F 82% 29.86 in 1.5 mi WSW 13.8 mph 26.5 mph 0.18 in Rain Light Rain
11:55 PM 44.6 °F 37.8 °F 39.2 °F 81% 29.86 in 2.0 mi WSW 15.0 mph 26.5 mph 0.01 in Rain Light Rain